sat.trackr.live / text

‹ back to catalog

ASTRA 1M

NORAD 33436 · 2008-057A

PAYLOAD ACTIVE UNKNOWN

§ Identity

Operator
Country
SES
Launch date
2008-11-05
Launch site
TYMSC
Launch vehicle
Mass (kg)
RCS (m²)
10.02

Purposes: comms

External: N2YO · Heavens-Above · Gunter

§ Orbital elements

Epoch: 2026-09-19T17:03:50.782752Z

Period
1,436.05 min
Inclination
0.5332°
Eccentricity
0.0003728
Mean motion
1.00274924 rev/d
Perigee alt
35,770.0 km
Apogee alt
35,801.4 km
Semi-major
42,163.9 km
B*
0.0000e+0
RAAN
82.5743°
Arg perigee
94.2046°
Mean anomaly
97.2154°
Rev number
4,668

§ Raw data

ASTRA 1M1 33436U 08057A   26262.71100443  .00000117  00000+0  00000+0 0  99942 33436   0.5332  82.5743 0003728  94.2046  97.2154  1.00274924 46689

JSON: /api/v1/satellites/33436 · /tle

For live sub-satellite position, see the globe view (requires WebGL).

§ Visibility from observer

Set your observer location to see the next 7 days of passes ≥ 10°. The values pass through the URL so the page stays shareable.

No JS? Fill the form by hand. The geolocation button needs JavaScript.